This is the latest recevied weather packets stored in our database for station/object KC4LZN. If no packets are shown the sender has not sent any weather packets the latest 10 day(s).
| Time | Temp. | Humidity | Pressure | Rain* | Wind** | Luminosity | Snow |
|---|---|---|---|---|---|---|---|
| 1777569800 | 30.56° C | 51% | 1012.5 hPa | 0 mm | - | 911 W/m² | - |
| 1777569496 | 30.56° C | 52% | 1012.6 hPa | 0 mm | - | 929 W/m² | - |
| 1777569193 | 30° C | 51% | 1012.7 hPa | 0 mm | - | 939 W/m² | - |
| 1777568889 | 30.56° C | 50% | 1012.8 hPa | 0 mm | - | 1024 W/m² | - |
| 1777568586 | 30° C | 51% | 1012.9 hPa | 0 mm | - | 962 W/m² | - |
| 1777568283 | 30° C | 50% | 1012.9 hPa | 0 mm | - | 950 W/m² | - |
| 1777567979 | 30° C | 50% | 1012.5 hPa | 0 mm | - | 904 W/m² | - |
| 1777567676 | 30° C | 50% | 1012.7 hPa | 0 mm | - | 944 W/m² | - |
| 1777567373 | 29.44° C | 53% | 1012.6 hPa | 0 mm | - | 945 W/m² | - |
| 1777567071 | 28.89° C | 53% | 1012.9 hPa | 0 mm | - | 525 W/m² | - |
| 1777566769 | 29.44° C | 53% | 1012.7 hPa | 0 mm | - | 575 W/m² | - |
| 1777566467 | 29.44° C | 52% | 1012.5 hPa | 0 mm | - | 761 W/m² | - |
| 1777566164 | 29.44° C | 53% | 1012.7 hPa | 0 mm | - | 971 W/m² | - |
| 1777565859 | 28.89° C | 52% | 1012.8 hPa | 0 mm | - | 898 W/m² | - |
| 1777565556 | 28.33° C | 56% | 1012.9 hPa | 0 mm | - | 947 W/m² | - |
| 1777565253 | 27.78° C | 57% | 1012.9 hPa | 0 mm | - | 347 W/m² | - |
| 1777564949 | 28.33° C | 56% | 1013 hPa | 0 mm | - | 337 W/m² | - |
| 1777564644 | 28.89° C | 55% | 1013.1 hPa | 0 mm | - | 1014 W/m² | - |
| 1777564339 | 28.33° C | 57% | 1012.8 hPa | 0 mm | - | 839 W/m² | - |
| 1777564036 | 28.89° C | 57% | 1013.1 hPa | 0 mm | - | 817 W/m² | - |
| 1777563732 | 27.78° C | 62% | 1013.2 hPa | 0 mm | - | 808 W/m² | - |
| 1777563429 | 27.22° C | 64% | 1013.4 hPa | 0 mm | - | 838 W/m² | - |
| 1777563128 | 28.33° C | 65% | 1013.4 hPa | 0 mm | - | 794 W/m² | - |
| 1777562824 | 27.78° C | 65% | 1013.3 hPa | 0 mm | - | 816 W/m² | - |
| 1777562522 | 27.78° C | 66% | 1013.3 hPa | 0 mm | - | 785 W/m² | - |
* Rain latest hour (hover to see other rain measurements)
** Current wind speed in m/s (hover to see current wind gust speed)